Location: Bogis-Bossey
(46.3500°N, 6.1667°E)
Time: 16:44:09
(UTC+00:00)

Cosmos 2278 Rocket - Pass Details

Date: 17 August 2022
Orbit: 841 x 845 km, 71.0° (Epoch: 01 October)

Event Time Altitude Azimuth Distance (km) Brightness Sun altitude
Exits shadow 23:36:28 - 271° (W) 2,524 4.7 -30.5°
Reaches altitude 10° 23:36:43 10° 273° (W) 2,462 4.6 -30.5°
Maximum altitude 23:40:38 19° 317° (NW) 1,917 4.5 -30.5°
Drops below altitude 10° 23:44:33 10° 2° (N) 2,470 5.5 -30.5°
Sets 23:47:47 0° 20° (NNE) 3,408 6.4 -30.4°
